Location: Newark
(40.2667°N, 44.5667°E)
Time: 20:08:20
(UTC+00:00)

Hubble Space Telescope - Visible Passes

Search period start: 21 September 2020 00:00
Search period end: 01 October 2020 00:00
Orbit: 536 x 540 km, 28.5° (Epoch: 21 September)

Date Brightness Start Highest point End Pass type
(mag) Time Alt. Az. Time Alt. Az. Time Alt. Az.
27 Sep 3.3 01:09:06 10° S 01:09:45 10° SSE 01:10:31 10° SSE visible
28 Sep 3.2 00:59:04 12° SSE 00:59:04 12° SSE 01:00:27 10° SE visible
29 Sep 3.3 00:49:01 12° SSE 00:49:01 12° SSE 00:50:00 10° SE visible
29 Sep 2.9 02:26:01 10° SW 02:28:28 15° S 02:30:56 10° SE visible
30 Sep 3.4 00:38:57 11° SE 00:38:57 11° SE 00:39:24 10° SE visible
30 Sep 2.9 02:15:16 10° SW 02:17:38 15° S 02:20:00 10° SSE visible
